Regional Weather Roundup
Issued by NWS Charleston, SC

Home | Current Version | Previous Version | Text Only | Print | Product List | Glossary On
Versions: 1 2 3 4 5 6 7 8 9 10 11 12 13 14 15 16 17 18 19 20 21 22 23 24 25 26 27 28 29 30 31 32 33 34 35 36 37 38 39 40 41 42 43 44 45 46 47 48 49 50
000
ASUS42 KCHS 220827
RWRCHS

REGIONAL WEATHER ROUNDUP
NATIONAL WEATHER SERVICE CHARLESTON SC
400 AM EDT TUE AUG 22 2017

NOTE: "FAIR" INDICATES FEW OR NO CLOUDS BELOW 12,000 FEET WITH NO
SIGNIFICANT WEATHER AND/OR OBSTRUCTIONS TO VISIBILITY.

NOT ALL STATIONS ARE QUALITY CONTROLLED. USE DATA WITH CAUTION...
ESPECIALLY DEWPOINT OBSERVATIONS.

SCZ027-030-031-034>040-042>050-220900-
...SOUTHEAST SOUTH CAROLINA...

CITY           SKY/WX    TMP DP  RH WIND       PRES   REMARKS
N CHARLESTON   PTCLDY    75  75 100 CALM      30.10F FOG
WATERFRONT PRK   N/A     79  78  97 VRB3      29.95F
JOHNS ISLAND   FAIR      79  77  94 CALM      30.10F
PINOPOLIS        N/A     77  75  94 VRB2      30.05F
MONCKS CORNER  FAIR      72  70  94 CALM      30.10F
SUMMERVILLE    NOT AVBL
BEAUFORT MCAS  CLOUDY    76  76 100 N5        30.10F
BEAUFORT ARPT  FAIR      75  73  94 NE3       30.10F
HILTON HEAD IS CLOUDY    77  77 100 CALM      30.11S
WALTERBORO     MOSUNNY   72  72 100 CALM      30.11F
ALLENDALE      NOT AVBL

...SOUTHERN MIDLANDS AND PEE DEE...

CITY           SKY/WX    TMP DP  RH WIND       PRES   REMARKS
GEORGETOWN     FAIR      73  72  94 CALM      30.12F
KINGSTREE      FOG       72  70  94 CALM      30.11F VSB 1/2
ORANGEBURG     CLEAR     71  70  96 CALM      30.12F
BARNWELL       FAIR      73  73 100 CALM      30.12F FOG
AIKEN          FAIR      70  70 100 CALM      30.15F
MANNING        FAIR      72  64  78 NW9G35    30.11F
COLUMBIA       PTCLDY    74  71  91 CALM      30.11F
SUMTER         CLEAR     74  71  91 CALM      30.09F
FLORENCE       PTCLDY    75  75 100 CALM      30.11F
MYRTLE BEACH   NOT AVBL
N MYRTLE BEACH CLOUDY    77  76  96 CALM      30.11F

$$

GAZ063-065-086>088-099>101-113>116-118-119-134>141-150-220900-
...SOUTHEAST GEORGIA...

CITY           SKY/WX    TMP DP  RH WIND       PRES   REMARKS
SAVANNAH ARPT  CLOUDY    75  74  96 NW6       30.11F
HUNTER AAF     LGT RAIN  75  73  94 NW3       30.08F
FORT STEWART   PTCLDY    73  72  94 CALM      30.08F
STATESBORO     CLEAR     74  74 100 CALM      30.10F
SYLVANIA       SUNNY     73  73 100 CALM      30.11F
CLAXTON        FAIR      74  74  98 CALM      30.11F FOG

...CSRA...CENTRAL AND FAR SOUTHEAST GEORGIA...

CITY           SKY/WX    TMP DP  RH WIND       PRES   REMARKS
THOMSON        CLEAR     72  71  95 CALM      30.17F
AUGUSTA-BUSH   FOG       73  72  96 CALM      30.11F VSB 1/2
AUGUSTA-DANIEL CLEAR     76  72  87 S3        30.13F
SWAINSBORO     FAIR      73  73 100 CALM      30.12F
VIDALIA        PTCLDY    73  73 100 CALM      30.11F
EASTMAN        FAIR      73  73 100 CALM      30.13S FOG
HAZLEHURST     FAIR      75  73  93 CALM      30.10F
ALMA           CLEAR     73  71  93 CALM      30.09F FOG
WAYCROSS       CLEAR     73  70  89 CALM      30.10F
JESUP          FAIR      75  72  88 CALM      30.11F
BAXLEY         FAIR      72  72 100 CALM      30.10F
BRUNSWICK      CLEAR     73  72  94 CALM      30.10F
SAINT SIMONS   CLEAR     77  76  96 CALM      30.09F

$$

SCZ027-028-034-036>038-045-046-048>050-GAZ119-141-220900-
...LAKE AND SUPPLEMENTAL COASTAL OBSERVATIONS...

STATION/POSITION TIME  TEMP    WIND        PRES    WAVE   SWELL
                       AIR SEA DIR/SP/G            HT/PER HT/PER/DIR
                 (UTC) (F)     (DEG/KT/KT) (MB)    (FT/S) (FT/S/D)
WINYAH BAY       0745   76        CALM     1020.0S
LAKE MURRAY      0750   78     220/  3/  5 1019.0F
ACE BASIN NERRS  0745   75        CALM     1020.0S
FORT PULASKI     0800   77 87  340/  6/  7 1019.7
SAPELO ISLAND    0800   77        CALM     1019.0

$$

ANZ835-935-AMZ111-154-330-350-352-354-370-450-454-472-220900-
...C-MAN AND BUOY OBSERVATIONS...

STATION/POSITION TIME  TEMP    WIND        PRES    WAVE   SWELL
                       AIR SEA DIR/SP/G            HT/PER HT/PER/DIR
                 (UTC) (F)     (DEG/KT/KT) (MB)    (FT/S) (FT/S/D)
BUOY 41004       0810   83 85  230/  8/ 10 1019.0
BUOY 41008       0750   83 85  180/  6/  8 1019.0F   2/ 8   2/ 80/ 8
FOLLY BEACH CMAN 0800   80     350/  5/  6 1019.9F
CAPERS NEARSHORE 0808   79 86  220/  6/  8 1019.2F
FRIPP NEARSHORE  0808   82     300/  6/  8 1018.9F


STATION/POSITION TIME  TEMP    WIND        PRES    WAVE   SWELL
                       AIR SEA DIR/SP/G            HT/PER HT/PER/DIR
                 (UTC) (F)     (DEG/KT/KT) (MB)    (FT/S) (FT/S/D)
5E ST. MARYS GA  0800      83                N/A     2/ 9
FRYING PAN BUOY  0810   83 84  210/  6/  8 1019.4
BUOY 41025       0750   82 86  350/  4/  6 1020.3F   3/ 9   3/140/ 9
CAPE LOOKOUT NC  0800   81     240/  3/  3 1019.9F
BUOY 41002       0750   82 83  150/  6/  8 1020.3F   4/11   3/100/11
BUOY 41010       0810   84 85   80/ 12/ 16 1018.3
ST AUGUSTINE FL  0800   82 82  140/  6/  6 1019.0F


$$



USA.gov is the U.S. government's official web portal to all federal, state and local government web resources and services.